User: anonymous   Login
Location: Newark
(45.9167°N, 5.5000°E)
Time: 06:24:30
(UTC+00:00)
Language:

ISS - Orbit

View from above orbital plane
View from above orbital plane
View from above satellite
View from above satellite

Ground track
Ground track

The orbit data is extracted from the following two-line orbital elements,

1 25544U 98067A   20059.09946471  .00016717  00000-0  10270-3 0  9025
2 25544  51.6435 173.1786 0005561 326.8552  33.2249 15.49205697 14946
Epoch (UTC): 28 February 2020 02:23:13
Eccentricity: 0.0005561
inclination: 51.6435°
perigee height: 415 km
apogee height: 423 km
right ascension of ascending node: 173.1786°
argument of perigee: 326.8552°
revolutions per day: 15.49205697
mean anomaly at epoch: 33.2249°
orbit number at epoch: 1494

The dashed part of the orbit path shows where the satellite is in the earth's shadow,  

DLR